Regional Weather Roundup
Issued by NWS

Home | Current Version | Previous Version | Text Only | Print | Product List | Glossary Off
Versions: 1 2 3 4 5 6 7 8 9 10 11 12 13 14 15 16 17 18 19 20 21 22 23 24 25 26 27 28 29 30 31 32 33 34 35 36 37 38 39 40 41 42 43 44 45 46 47 48 49 50

000
ASUS45 KTFX 301319
RWRMT
MONTANA HOURLY WEATHER ROUNDUP
NATIONAL WEATHER SERVICE GREAT FALLS MT
619 AM MST FRI JAN 30 2015

NOTE: "FAIR" INDICATES FEW OR NO CLOUDS BELOW 12000 FEET WITH NO
SIGNIFICANT WEATHER AND/OR OBSTRUCTIONS TO VISIBILITY.

* THESE STATIONS ARE NOT UNDER NWS QUALITY CONTROL. THEY DO NOT
   REPORT WEATHER SUCH AS PRECIPITATION OR FOG.

MTZ001>007-043-301400-
WEST OF THE DIVIDE
CITY           SKY/WX    TMP DP  RH WIND       PRES   REMARKS
KALISPELL      FOG       10   9  96 CALM      30.36S VSB M1/4
MISSOULA       PTCLDY    19  18  96 CALM      30.36S
BUTTE          MOCLDY    18  12  77 CALM      30.27S
MULLAN PASS    CLEAR     30  18  61 CALM      30.24S
* ANACONDA     PTCLDY    21  16  81 N/A        N/A
* ESSEX        N/A       11   9  92 N/A        N/A
* EUREKA APT   CLEAR     25  21  85 CALM      30.40S
* HAMILTON APT PTCLDY    23  19  85 S3        30.33S
* LIBBY APT    CLEAR     23  21  92 CALM      30.40S VSB 1
* LINCOLN      N/A       11   8  88 E1         N/A
* LOOKOUT PASS N/A       22  21  96 S2         N/A
* POLSON       N/A       23  22  96 SW1        N/A
* RONAN APT    CLEAR     19  18  96 N/A        N/A
* SEELEY LAKE  N/A        5   1  83 N/A        N/A
* THOMP F APT  CLEAR     24  20  85 N/A        N/A
$$

MTZ008-052>055-301400-
SOUTHWEST MONTANA
CITY           SKY/WX    TMP DP  RH WIND       PRES   REMARKS
BOZEMAN        PTCLDY    21  18  88 SE6       30.27S WCI  13
DILLON         PTCLDY    21  14  74 S9        30.26F WCI  11
* W YELLOWSTON MOCLDY     9   6  87 N/A        N/A
* THREE FORKS  MOCLDY    21  -4  33 N/A        N/A
* BOULDER HILL N/A       29  14  53 SW6        N/A   WCI  23
* MONIDA PASS  N/A       11  10  96 W4         N/A
* RAYNOLDS PAS N/A       16   1  51 N/A        N/A
* WHITEHALL    N/A       21  17  84 E2G8       N/A
* WISE RIVER   N/A       11   7  84 NW2G9      N/A
$$

MTZ009>010-012-014-046-048-049-054-301400-
EAST SLOPES AND CENTRAL MONTANA
CITY           SKY/WX    TMP DP  RH WIND       PRES   REMARKS
CUT BANK       CLEAR     25  16  69 NW7       30.19R WCI  17
GREAT FALLS    CLEAR     32  18  56 SW13      30.20S WCI  22
HELENA         PTCLDY    25  19  78 CALM      30.27F
MALMSTROM AFB  CLEAR     27  18  69 S2        30.21S
* CONRAD       CLEAR     19  16  88 CALM       N/A
* DEARBORN     N/A       26  21  81 SW1        N/A
* EAST GLACIER N/A       32  12  43 W20G27     N/A   WCI  20
* MONARCH      N/A       24   7  48 S9         N/A   WCI  14
* PENDROY      N/A       29   3  33 N/A        N/A
* ROGERS PASS  N/A       24  18  78 E3G9       N/A
* SWEET GRASS  N/A       32  11  41 SW9        N/A   WCI  24
* WHITE SULPH  N/A       19  14  81 NE2        N/A
$$

MTZ011-013-016-021-035-040-045-047-050-051-301400-
NORTH CENTRAL MONTANA
CITY           SKY/WX    TMP DP  RH WIND       PRES   REMARKS
HAVRE          CLEAR     25  21  85 SW10      30.21S WCI  15
LEWISTOWN      CLEAR     23  14  68 SE8       30.20F WCI  14
* N BAR RANCH  CLEAR     28   9  45 NW6       30.20S WCI  21
* CHINOOK      CLEAR     19  18  96 CALM      30.21S
* CHESTER      N/A       22  17  81 SW1        N/A
* DENTON       N/A       23  16  74 SW6        N/A   WCI  16
* GEYSER       N/A       27  10  49 SW11       N/A   WCI  17
* JUDITH GAP   N/A       30  11  45 NW8        N/A   WCI  22
* LOMA         N/A       28  20  72 W6         N/A   WCI  21
$$

MTZ017>020-022>027-061-062-301400-
NORTHEAST MONTANA
CITY           SKY/WX    TMP DP  RH WIND       PRES   REMARKS
GLASGOW        FOG       19  16  88 NW10      30.18R WCI   8
GLENDIVE       CLEAR     21  18  88 CALM      30.17S
JORDAN         CLEAR     25  21  85 W3        30.17S
SIDNEY         CLEAR     21  19  92 S6        30.17F WCI  13
WOLF POINT     CLEAR     21  18  88 SW3       30.18R
* BEAVER HILL  N/A       30  22  72 SW6G13     N/A   WCI  24
* CIRCLE       N/A       27  24  88 N/A        N/A
* LINDSAY DVD  N/A       31  25  78 NW7        N/A   WCI  24
* NAVAJO       N/A       28  24  85 NW11       N/A   WCI  18
* PLENTYWOOD A CLEAR     21  18  88 W8        30.14R WCI  11
* POPLAR APT   CLEAR     19  18  96 N/A       30.18R
* SACO         N/A       19  17  92 W2         N/A
* SCOBEY APT   CLEAR     18  12  77 N/A        N/A
$$

MTZ028>042-056>058-301400-
SOUTHCENTRAL AND SOUTHEAST MONTANA
CITY           SKY/WX    TMP DP  RH WIND       PRES   REMARKS
BAKER          CLEAR     27  19  72 CALM      30.16F
BILLINGS       PTCLDY    32  25  75 SW13      30.21R WCI  22
LIVINGSTON     PTCLDY    30  18  61 W15       30.22R WCI  19
MILES CITY     CLEAR     23  21  92 S5        30.19R WCI  16
* BIG TIMBER A MOCLDY    34  18  52 W14G20    30.21R WCI  24
* FORSYTH APT  CLEAR     27  25  92 SW3       30.20R
* LAUREL APT   PTCLDY    27  18  69 N/A        N/A
* ROUNDUP APT  PTCLDY    25  18  75 N/A        N/A
* ALZADA       N/A       22  18  85 W2         N/A
* HYSHAM       N/A       31  25  78 W8         N/A   WCI  24
* LAME DEER    N/A       35  23  62 W8         N/A   WCI  28
* REED POINT   N/A       23  23 100 W6         N/A   WCI  16
* ROSCOE HILL  N/A       35  -4  18 W3G8       N/A
$$

REGIONAL REPORTS...DAKOTAS
CITY           SKY/WX    TMP DP  RH WIND       PRES   REMARKS
WILLISTON      CLEAR     16  12  84 CALM      30.15S
DICKINSON      CLEAR     28  18  66 SW13      30.11F WCI  17
BEACH          CLEAR     32  25  75 W5        30.16R WCI  27
CROSBY         CLEAR     23  23 100 SW8       30.13S WCI  14
TIOGA          CLEAR     18  18 100 W3        30.15S
WATFORD CITY   CLEAR     23  19  85 SW6       30.12F WCI  16
BISMARCK       CLEAR     18  16  92 S7        30.23F WCI   9
GRAND FORKS    CLOUDY    10   3  73 S12G21    30.38F WCI  -5
FARGO          CLOUDY    12   3  67 S12       30.43F WCI  -2
BUFFALO SD     CLEAR     25  16  69 CALM      30.11S
RAPID CITY     MOCLDY    21  16  81 N3        30.18F
$$

REGIONAL REPORTS...WYOMING/IDAHO/WASHINGTON
CITY           SKY/WX    TMP DP  RH WIND       PRES   REMARKS
GILLETTE       CLOUDY    21  19  92 CALM      30.18S
SHERIDAN       MOCLDY    25  18  75 CALM      30.19S
CODY           MOCLDY    27  19  72 CALM      30.20S
YELLOWSTONE LA MOCLDY     0  -4  83 CALM      30.28S
SALMON         CLOUDY    25  21  85 CALM      30.37S
MULLAN PASS    CLEAR     30  18  61 CALM      30.24S
SAND POINT     CLOUDY    27  27 100 CALM      30.38S
SPOKANE        FOG       28  28 100 NE6       30.36R VSB M1/4 WCI  21
$$

REGIONAL REPORTS...ALBERTA
CITY           SKY/WX    TMP DP  RH WIND       PRES   REMARKS
CALGARY        MOCLDY    25  18  75 CALM      30.17S
LETHBRIDGE     N/A       25  19  78 SW8       30.18R WCI  16
MEDICINE HAT   FOG       21  21 100 VRB2      30.22S VSB M1/4
EDMONTON       PTCLDY    23  16  74 W5        30.21R WCI  16
WATERTON GATE  N/A       36  16  44 SW22G28    N/A   WCI  25
CARDSTON       N/A       23  16  74 S1         N/A
MILK RIVER     N/A       23  16  74 NW8        N/A   WCI  14
$$

REGIONAL REPORTS...SASKATCHEWAN
CITY           SKY/WX    TMP DP  RH WIND       PRES   REMARKS
SWIFT CURRENT  HVY SNOW  25  23  92 W13       30.16S VSB M1/4 WCI  13
MOOSE JAW      FOG       21  21 100 NW10      30.16R WCI  10
REGINA         CLOUDY    12  10  92 CALM      30.14S
VAL MARIE      N/A       16  14  92 SW1        N/A
ASSINIBOIA     N/A       21  19  92 W8         N/A   WCI  11
CORONACH       N/A       19  18  96 NW7        N/A   WCI  10

$$




USA.gov is the U.S. government's official web portal to all federal, state and local government web resources and services.